Lapse_Rate
6.6 6.4 6.3 6.1 5.9 6.0 6.3 6.0 6.0 5.9 5.8 5.9 5.8 5.6 5.6 5.5 5.4 5.3 5.2 5.1 5.0 5.0 4.9 4.9 4.9 4.9 5.0 5.0 5.1 5.1 5.1 5.2 5.2 5.5 5.5 5.4 5.3 5.3 5.2 5.2 5.1 5.1 5.1 5.1
6.5 6.6 6.3 6.4 5.9 5.9 5.9 6.0 6.0 5.8 5.6 5.6 5.8 5.7 5.6 5.5 5.4 5.2 5.1 5.1 5.0 5.0 4.9 4.9 5.0 5.0 4.9 4.9 4.8 4.8 4.8 4.8 4.8 4.9 5.0 5.3 5.3 5.0 5.0 4.9 4.8 4.8 4.8 4.8
6.7 6.6 6.3 6.5 5.7 5.8 5.5 5.4 5.5 5.4 5.1 5.4 5.6 5.6 5.6 5.5 5.4 5.2 5.0 4.7 4.7 4.7 4.7 4.7 4.8 4.7 4.6 4.7 4.7 4.8 4.9 4.9 4.8 4.7 4.7 4.7 4.7 4.9 5.0 4.8 4.7 4.7 4.7 4.7
6.8 6.8 6.1 5.6 5.5 5.6 5.7 5.5 5.3 5.3 5.5 5.6 5.7 5.7 5.6 5.3 5.3 5.2 5.1 5.1 4.9 4.7 4.7 4.6 4.3 4.2 4.1 4.1 4.2 4.2 4.3 4.4 4.4 4.1 4.2 4.4 4.6 4.7 4.8 4.8 4.8 4.7 4.7 4.7
6.6 6.6 5.9 5.7 5.6 5.7 5.5 5.1 5.7 5.7 5.8 5.9 6.0 5.9 5.9 5.7 5.4 5.3 5.2 5.1 4.8 4.8 4.7 4.5 4.5 4.4 4.3 4.2 4.1 4.1 4.0 4.0 4.1 4.2 4.4 4.5 4.5 4.8 4.9 4.9 4.9 4.8 4.8 4.7
6.7 6.7 6.6 5.4 5.7 5.7 5.6 5.2 5.9 5.7 5.8 6.1 6.3 6.4 6.0 5.9 5.7 5.7 5.6 5.5 5.3 5.1 5.0 4.9 4.8 4.6 4.5 4.5 4.5 4.5 4.4 4.4 4.4 4.5 4.6 4.8 4.9 5.0 5.0 5.2 5.2 5.3 5.2 5.2
6.4 6.6 6.0 6.0 6.0 5.8 5.7 5.5 5.7 5.7 5.7 5.9 6.0 5.7 6.3 6.1 6.0 6.0 6.0 5.9 5.7 5.7 5.4 5.2 5.0 4.9 4.8 4.6 4.6 4.6 4.6 4.6 4.7 4.7 4.7 4.8 4.9 4.9 5.0 5.1 5.2 5.2 5.2 5.2
6.0 6.3 5.7 6.1 5.9 5.8 5.8 5.4 5.4 5.7 5.7 5.7 5.8 6.0 6.0 6.3 6.5 6.5 6.2 6.2 6.0 5.8 6.0 5.9 5.6 5.2 5.4 5.1 4.8 4.6 4.7 4.6 4.6 4.7 4.8 4.8 4.8 4.9 5.0 5.0 5.1 5.1 5.2 5.2
5.7 5.7 5.6 5.5 5.3 5.5 5.5 5.4 5.5 5.4 5.4 5.4 5.7 6.0 6.1 6.3 6.3 6.2 6.3 6.3 6.0 5.7 5.6 5.8 5.7 5.6 5.7 5.7 5.2 5.0 4.9 4.7 4.7 4.7 4.7 4.8 4.9 4.9 4.9 5.0 5.0 5.0 5.1 5.0
5.8 5.8 5.8 5.2 5.1 5.1 5.3 5.2 5.2 5.3 5.3 5.3 5.4 5.6 5.8 5.9 6.0 6.2 6.2 5.9 5.9 5.8 5.6 5.4 5.4 5.6 5.4 5.8 5.4 5.3 5.4 5.2 5.0 4.9 4.8 4.7 4.8 4.9 4.9 4.8 4.8 4.7 4.8 4.8
6.0 5.6 5.5 5.5 5.2 4.8 5.0 4.9 4.8 4.8 5.0 5.2 5.3 5.4 5.2 5.3 5.3 5.3 5.1 5.1 5.0 5.0 5.1 5.3 5.2 5.3 5.5 5.4 5.6 5.4 5.5 5.5 5.4 5.3 5.1 5.0 5.0 5.1 5.1 5.0 4.8 4.7 4.6 4.5
5.1 5.0 5.0 5.1 4.9 4.9 4.8 4.8 5.1 5.2 5.4 5.4 5.1 4.9 4.8 4.7 4.6 4.6 4.7 4.7 4.5 4.3 4.2 4.3 4.4 4.6 5.0 5.1 5.4 5.4 5.4 5.5 5.5 5.4 5.4 5.3 5.3 5.3 5.3 5.3 5.1 5.0 4.9 4.8
4.8 4.9 4.7 4.5 4.5 4.3 4.4 4.8 5.2 5.2 5.1 4.9 4.9 4.5 4.2 4.2 4.2 4.1 4.0 3.8 3.9 4.0 4.1 3.9 3.8 4.1 4.3 4.6 4.9 5.2 5.2 5.3 5.3 5.3 5.4 5.3 5.3 5.3 5.4 5.3 5.3 5.1 5.1 5.1
4.6 4.6 4.9 4.5 4.6 4.5 4.7 4.8 4.9 4.8 4.9 4.6 4.4 4.3 4.1 4.0 4.0 3.9 3.9 3.8 3.8 3.8 3.8 3.8 3.8 3.9 4.0 4.2 4.3 4.7 5.1 5.2 5.2 5.3 5.4 5.3 5.3 5.4 5.3 5.3 5.2 5.2 5.1 5.0
4.7 4.3 4.2 4.3 4.3 4.3 4.7 4.9 5.0 4.9 5.0 4.8 4.4 4.1 4.0 3.9 3.8 3.9 4.0 4.0 4.1 4.1 3.9 3.8 3.9 4.1 4.0 4.1 4.3 4.7 4.9 5.2 5.2 5.4 5.3 5.4 5.5 5.5 5.4 5.4 5.3 5.3 5.2 5.1
4.6 4.2 4.2 4.3 4.5 4.7 4.9 4.9 4.9 5.0 5.0 4.7 4.4 4.1 4.0 3.9 4.1 4.1 4.1 4.0 4.1 4.1 4.1 4.1 4.2 4.3 4.3 4.4 4.6 4.8 4.9 5.1 5.2 5.3 5.5 5.5 5.6 5.6 5.6 5.6 5.5 5.4 5.3 5.3
4.5 4.5 4.5 4.5 4.5 4.8 4.8 4.7 4.6 4.8 4.8 4.5 4.2 4.1 4.0 4.1 4.3 4.3 4.3 4.4 4.4 4.4 4.4 4.4 4.6 4.8 4.8 4.8 4.8 5.1 5.2 5.3 5.3 5.4 5.5 5.5 5.6 5.7 5.7 5.6 5.6 5.5 5.5 5.4
4.2 4.2 4.3 4.4 4.5 4.8 4.8 4.6 4.5 4.6 4.7 4.7 4.3 4.1 3.9 4.1 4.4 4.5 4.6 4.8 4.9 5.0 5.2 5.2 5.2 5.2 5.2 5.2 5.2 5.3 5.6 5.6 5.5 5.4 5.5 5.5 5.6 5.7 5.6 5.6 5.7 5.7 5.7 5.6
4.2 4.0 4.2 4.4 4.6 4.9 4.7 4.7 4.5 4.5 4.7 4.6 4.5 4.2 4.0 4.1 4.3 4.5 4.7 5.0 5.1 5.3 5.5 5.7 5.8 5.8 5.8 5.7 5.6 5.6 5.8 5.8 5.7 5.6 5.6 5.5 5.5 5.6 5.7 5.7 5.7 5.8 5.8 5.8
4.1 4.0 4.2 4.5 4.6 4.9 4.9 4.7 4.7 4.6 4.6 4.6 4.5 4.3 4.2 4.2 4.4 4.6 4.7 5.0 5.1 5.1 5.4 5.6 5.8 5.9 5.9 5.9 6.0 5.9 5.9 6.0 5.9 5.8 5.8 5.7 5.7 5.7 5.8 5.8 5.9 5.9 5.9 5.9
4.2 4.2 4.4 4.6 4.6 4.9 4.9 4.8 4.7 4.7 4.6 4.5 4.5 4.4 4.4 4.4 4.4 4.6 4.8 4.9 5.1 5.2 5.2 5.4 6.0 6.0 6.1 6.2 6.2 6.2 6.2 6.1 6.0 6.0 6.0 5.9 6.0 6.0 6.0 6.0 6.0 6.0 6.0 6.0
4.4 4.3 4.4 4.7 4.7 4.8 4.9 4.8 4.7 4.6 4.6 4.6 4.5 4.4 4.5 4.5 4.5 4.5 4.6 4.8 5.0 5.0 5.3 5.6 5.6 5.7 5.9 6.2 6.2 6.2 6.2 6.2 6.2 6.3 6.3 6.2 6.2 6.1 6.1 6.1 6.1 6.1 6.2 6.2
4.5 4.4 4.5 4.7 4.7 4.7 4.9 4.8 4.6 4.6 4.6 4.6 4.7 4.7 4.7 4.7 4.8 4.9 4.8 4.7 4.8 5.0 5.3 5.4 5.3 5.9 5.9 5.9 5.8 5.9 6.1 6.1 6.1 6.2 6.3 6.3 6.2 6.2 6.2 6.3 6.3 6.4 6.4 6.4
4.5 4.3 4.4 4.6 4.7 4.8 5.0 4.8 4.6 4.5 4.5 4.5 4.5 4.6 4.8 4.9 4.6 4.8 4.8 4.9 4.9 5.2 5.3 5.3 5.5 5.6 5.9 5.9 5.9 5.9 6.0 6.1 6.2 6.3 6.4 6.4 6.4 6.4 6.4 6.4 6.4 6.4 6.4 6.5
4.7 4.4 4.5 4.6 4.8 4.8 4.9 5.0 4.9 4.7 4.5 4.5 4.5 4.4 4.5 4.6 4.9 5.0 5.0 5.1 5.1 5.3 5.3 5.5 5.6 5.6 5.7 6.0 6.1 6.1 6.1 6.2 6.2 6.4 6.4 6.4 6.4 6.5 6.5 6.5 6.5 6.5 6.6 6.6
4.9 4.5 4.5 4.5 4.7 5.0 4.9 5.0 4.9 4.9 4.8 4.6 4.5 4.6 4.6 4.6 4.7 4.8 5.0 5.1 5.2 5.3 5.4 5.5 5.6 5.6 5.6 5.8 5.9 6.0 6.1 6.2 6.3 6.4 6.4 6.4 6.5 6.6 6.6 6.6 6.6 6.7 6.7 6.7
5.1 4.8 4.4 4.3 4.5 4.8 4.9 5.1 5.0 4.7 4.9 4.8 4.8 4.6 4.6 4.6 4.6 4.6 4.8 4.9 5.0 5.2 5.3 5.4 5.4 5.5 5.7 5.7 5.8 5.9 6.0 6.1 6.3 6.3 6.4 6.4 6.4 6.5 6.5 6.5 6.6 6.6 6.6 6.7
Wind_Speed
3 2 5 7 6 8 6 2 3 4 2 3 6 6 7 5 5 5 4 4 4 3 2 1 1 1 2 3 3 4 4 4 4 4 4 4 5 5 4 5 3 6 5 5
2 3 9 9 9 9 4 5 3 4 2 3 3 3 1 2 2 3 4 3 4 3 3 4 3 3 2 1 2 3 3 3 3 4 4 4 5 5 5 4 4 4 4 3
3 5 11 5 4 7 4 5 1 7 5 11 10 9 4 3 3 6 8 2 5 5 6 5 4 3 3 2 1 2 2 2 2 3 3 4 4 4 4 4 3 3 3 4
1 2 1 3 4 8 9 6 8 6 10 11 10 11 4 10 11 9 8 7 4 6 5 4 4 4 3 3 3 3 2 1 1 2 2 3 3 3 4 3 3 2 2 3
1 2 3 4 2 2 1 6 10 8 10 12 16 2 10 14 12 11 11 8 6 2 2 5 5 4 4 4 4 3 4 4 3 2 1 1 2 3 3 3 3 3 2 2
3 1 0 3 9 7 2 3 11 11 10 10 13 6 4 17 16 14 12 12 9 6 2 2 4 5 5 5 5 5 5 4 5 5 4 3 3 3 2 1 3 2 3 3
5 2 3 9 12 5 2 1 9 10 10 7 4 5 14 16 15 14 13 13 14 10 6 5 5 5 5 5 6 5 3 2 4 4 5 5 4 3 2 2 3 3 3 4
4 3 2 12 4 3 1 5 9 9 10 10 11 13 14 16 16 16 15 15 13 12 11 7 6 5 6 6 6 5 4 4 4 4 4 3 5 3 3 3 3 4 4 4
2 1 3 4 7 7 3 2 5 5 10 11 13 15 17 15 14 14 15 14 13 12 13 13 7 6 7 6 5 5 5 5 5 5 5 4 3 3 2 3 3 3 3 2
6 2 5 2 7 9 4 2 3 3 6 10 12 14 14 14 14 13 13 13 12 13 13 13 12 9 6 6 5 4 5 5 5 5 5 5 5 4 4 3 3 4 3 3
5 2 9 7 7 6 4 4 4 5 5 7 8 12 12 12 13 12 13 13 12 12 12 13 9 8 6 5 5 5 5 4 5 5 5 4 5 4 4 4 4 3 3 2
4 3 3 6 6 5 6 4 5 4 10 6 4 11 11 11 11 10 13 13 11 11 12 11 8 6 5 5 4 4 4 6 5 4 4 5 4 4 11 13 15 15 14 10
4 1 4 8 5 3 8 8 6 7 7 10 11 9 10 10 9 16 12 13 10 10 11 10 10 9 6 4 5 5 5 6 4 7 4 4 3 3 3 5 11 11 12 13
0 4 6 3 5 7 6 9 12 9 8 8 10 10 9 10 10 10 11 11 12 12 11 7 10 10 7 5 7 7 4 14 5 3 4 3 4 3 3 3 3 2 6 7
1 2 6 7 5 7 6 6 5 7 8 7 6 9 9 12 13 12 10 11 12 12 7 7 9 10 5 7 6 5 4 3 3 3 2 5 3 2 3 3 3 2 2 5
5 5 6 4 8 7 7 7 6 8 10 11 11 13 14 15 14 11 10 9 9 7 6 6 7 7 5 5 6 4 5 14 10 4 3 2 1 3 3 2 2 2 2 2
5 5 4 5 8 9 9 10 10 11 11 12 13 14 15 16 14 10 9 8 7 8 6 6 7 5 4 4 5 4 4 5 12 6 4 4 4 5 2 1 2 2 2 3
5 9 7 5 7 9 9 10 10 11 11 13 13 13 13 13 13 11 11 9 9 8 7 5 5 5 5 5 6 4 4 3 3 3 4 6 3 3 2 2 2 2 3 3
6 6 6 8 8 8 9 10 9 10 11 11 12 11 12 12 13 10 10 10 8 7 6 5 11 7 5 7 8 5 5 4 4 3 3 6 1 3 3 2 2 1 1 2
6 6 7 9 8 8 9 7 8 10 9 11 10 11 11 12 13 11 10 9 8 9 9 7 6 4 4 5 11 6 6 5 4 4 3 3 2 2 2 3 2 1 1 2
6 7 8 8 8 7 8 5 8 8 10 10 10 10 10 11 12 11 10 8 15 10 12 17 8 2 3 6 4 1 6 5 4 3 3 2 1 2 2 1 0 1 1 1
4 5 7 7 7 7 7 8 6 8 9 8 9 10 10 11 11 9 7 8 9 22 11 8 7 16 9 20 4 1 2 2 1 2 2 2 2 1 0 0 0 1 2 2
4 3 5 5 7 6 8 6 6 9 7 8 9 8 8 7 7 7 7 11 9 13 8 9 17 16 18 8 7 7 7 5 4 3 2 1 0 0 1 1 2 1 2 2
3 4 5 7 4 5 6 5 8 8 5 9 8 7 7 6 7 6 7 12 18 14 10 11 13 16 14 4 5 5 4 4 3 2 1 3 0 0 1 2 2 2 2 4
3 4 5 3 4 5 8 7 8 6 7 7 8 7 7 6 6 7 5 5 14 11 7 14 17 17 5 4 4 4 3 3 3 3 2 2 1 2 2 2 2 3 3 3
3 3 4 2 3 3 5 6 5 6 7 7 7 6 6 6 7 7 6 11 7 11 6 5 6 6 5 5 3 3 3 3 4 4 4 2 2 2 2 3 3 2 3 4
3 7 2 2 3 5 5 7 6 6 7 7 6 5 6 6 7 8 11 7 6 6 6 6 6 8 6 6 4 5 4 4 8 5 4 3 2 2 3 3 3 6 8 9
Wind_Direction
104 117 92 70 69 60 64 240 62 296 17 293 316 350 41 83 124 135 132 139 127 121 112 138 146 48 32 21 18 2 24 38 24 23 25 28 29 13 6 46 32 20 27 17
152 140 99 70 53 64 72 5 5 1 89 341 294 303 91 49 9 180 174 186 162 173 198 202 198 170 146 50 9 8 24 35 20 23 27 25 23 16 26 32 24 31 30 19
141 159 142 94 335 88 80 25 208 37 10 6 7 5 18 73 43 8 358 288 196 198 219 220 187 174 165 171 173 7 7 20 23 24 28 21 10 16 16 14 26 6 33 28
263 114 255 220 140 107 99 63 32 23 14 7 346 327 332 41 21 4 350 338 268 219 188 179 161 181 168 196 195 187 260 271 167 34 0 356 4 3 353 353 353 7 24 20
88 79 135 181 41 27 33 67 32 16 9 358 341 2 67 28 13 349 340 331 321 315 185 172 174 196 190 227 218 207 220 205 194 185 263 320 328 316 318 334 337 333 329 334
356 359 11 24 360 330 298 180 17 11 2 351 346 2 331 350 347 340 339 337 331 319 278 247 237 190 208 240 240 234 233 205 185 186 198 226 258 279 260 294 280 293 308 326
341 4 97 353 318 303 224 282 357 359 348 341 344 313 318 325 325 330 331 330 325 324 301 271 239 198 216 240 245 236 194 193 227 203 199 209 216 221 249 283 304 314 302 289
335 347 242 356 6 76 355 355 351 350 334 328 315 313 309 313 315 318 319 323 321 314 306 282 266 217 228 238 242 216 176 224 238 242 240 236 198 220 230 231 255 267 271 282
110 16 60 353 100 71 62 324 351 342 335 325 311 309 310 309 313 314 313 309 309 306 309 308 263 222 223 234 249 215 194 220 237 246 240 224 198 218 226 224 216 253 252 255
27 331 324 193 83 34 50 33 315 315 316 317 307 307 310 311 308 307 306 302 301 305 296 290 288 267 222 209 234 227 218 230 237 238 241 240 247 205 206 235 226 225 237 251
261 8 352 133 60 30 9 353 320 298 285 288 299 307 299 305 305 303 302 300 298 291 289 291 294 299 299 232 206 223 224 234 240 243 241 254 249 222 206 222 203 197 230 212
253 192 191 266 330 339 5 326 303 299 310 303 273 295 296 295 293 296 291 289 290 305 298 282 287 284 280 289 230 207 230 238 233 230 234 237 233 249 261 244 243 254 252 241
261 335 208 259 269 21 336 308 283 295 284 291 293 285 286 288 291 296 317 296 291 288 290 290 282 277 266 255 264 228 226 238 247 248 217 227 240 224 234 270 268 258 260 263
258 30 338 4 292 296 277 279 293 282 269 273 277 284 280 284 290 288 285 280 280 282 276 265 275 268 258 246 241 236 227 239 224 236 247 232 232 228 226 230 243 268 305 293
51 167 235 275 303 290 272 283 296 291 287 293 289 306 314 311 305 296 288 286 286 282 261 273 268 265 246 235 229 210 214 233 252 265 267 249 224 219 237 241 244 261 299 300
298 292 298 290 289 297 303 314 301 317 323 324 326 324 319 315 308 302 300 300 304 308 279 291 261 266 243 214 222 213 222 234 226 225 240 248 232 231 236 219 216 239 256 258
337 328 299 291 307 314 316 321 320 324 327 328 323 319 318 317 315 317 316 311 306 302 269 256 271 271 223 200 203 226 224 221 239 229 214 223 231 233 197 186 219 243 249 273
232 258 280 294 308 314 321 316 322 326 327 319 312 313 315 317 320 321 322 316 311 304 288 275 263 235 219 208 203 223 239 230 247 249 238 231 204 165 173 209 235 240 263 280
273 305 309 318 317 320 316 322 328 325 312 307 310 313 314 321 323 321 324 320 311 321 308 292 291 322 218 217 208 212 226 225 236 244 212 239 237 186 186 193 225 274 302 322
325 325 327 319 328 319 319 326 316 308 310 315 318 321 332 330 328 329 328 325 320 310 291 296 331 261 259 249 269 181 205 223 232 233 208 190 185 179 188 211 207 227 302 302
329 327 323 320 317 321 326 311 307 311 314 322 329 326 327 321 327 333 346 346 334 352 12 349 319 286 299 270 266 213 190 208 230 229 191 77 168 128 112 135 156 358 307 291
299 298 301 308 320 315 313 303 309 317 314 322 318 319 326 327 328 326 346 344 331 346 6 348 357 25 31 27 53 138 92 103 115 103 83 90 102 86 38 82 266 287 284 287
282 294 315 308 298 295 297 306 312 318 321 319 313 321 321 323 327 337 346 338 344 344 10 337 353 37 24 15 18 21 27 38 50 58 64 68 67 188 219 242 263 285 305 298
308 311 292 290 316 309 320 328 324 327 321 325 334 331 341 331 330 329 326 341 335 10 6 336 351 12 30 3 1 9 10 8 4 359 320 293 212 251 242 246 263 273 291 308
294 287 289 336 321 323 318 332 326 335 331 330 332 330 347 338 331 317 342 337 348 356 7 347 355 3 0 0 347 2 348 337 302 258 307 299 259 257 257 253 248 244 258 271
283 284 298 312 289 308 319 322 332 334 333 326 324 333 342 337 335 354 338 345 357 348 339 344 340 349 344 327 350 328 316 308 318 304 286 271 264 260 239 247 249 260 277 270
288 330 307 328 319 318 322 346 339 327 331 320 308 339 337 340 334 356 347 346 343 338 335 336 335 332 332 321 322 300 294 288 297 276 241 262 258 236 241 242 249 262 270 275